Location: Wiesbaden
(50.0830°N, 8.2500°E)
Time: 20:06:59
(UTC+02:00)

ISS - Pass Details

Date: 13 July 2019
Orbit: 409 x 418 km, 51.6° (Epoch: 20 July)

Event Time Altitude Azimuth Distance (km) Brightness Sun altitude
Exits shadow 00:51:39 17° 96° (E) 1,135 -1.7 -17.4°
Drops below altitude 10° 00:52:41 10° 85° (E) 1,483 -1.0 -17.5°
Sets 00:54:55 0° 74° (ENE) 2,346 0.1 -17.5°
